Date String (YYYY-MM-DD hh:mm:ss) UTC,Instrument flags,absolute air pressure of the measurement (hPa),sample flow rate (lpm),inlet stack bypass flow (lpm),air temperature of the measurement (°C),ambient temperature measured by the external sensor (°C),aerosol sample conditioner tube jacket temperature (°C),OPC LED temperature (°C),internal box temperature (°C),relative humidity of the measurement (%),span deviation,mass concentration of particles derived from Lorenz-Mie calculation of OPC scattering (μg/m³),mass concentration of particles derived from Lorenz-Mie calculation of OPC scattering (μg/m³),mass concentration of particles derived from Lorenz-Mie calculation of OPC scattering (μg/m³)
DateTimeUTC,F1_M11,P_M11,Q1_M11,Q2_M11,T1_M11,T2_M11,T3_M11,T4_M11,T5_M11,U1_M11,ZSPAN_M11,X0_M11,X2_M11,X1_M11
2024-06-01 09:00:00,SystemResetWarning,0829.2,5.00,000.00,030.5,029.7,000.0,039.1,032.2,024.1,0002.4,0015.68,0006.42,0005.43
2024-06-01 09:01:00,SystemResetWarning,0829.2,5.01,000.00,030.5,029.7,000.0,039.1,032.3,024.3,0002.6,0015.71,0006.44,0005.47
2024-06-01 09:02:00,SystemResetWarning,0829.2,4.99,000.00,030.5,029.7,000.0,039.1,032.3,024.3,0002.7,0015.54,0006.50,0005.51
2024-06-01 09:03:00,SystemResetWarning,0829.2,4.99,000.00,030.5,029.8,000.0,039.1,032.3,024.5,0002.5,0015.54,0006.49,0005.52
2024-06-01 09:04:00,SystemResetWarning,0829.2,5.00,000.00,030.6,029.8,000.0,039.1,032.3,024.6,0002.7,0015.66,0006.50,0005.53
2024-06-01 09:05:00,SystemResetWarning,0829.2,5.00,000.00,030.6,029.8,000.0,039.1,032.3,024.6,0002.6,0014.25,0006.51,0005.57
2024-06-01 09:06:00,SystemResetWarning,0829.2,5.00,000.00,030.6,029.8,000.0,039.1,032.3,024.6,0003.2,0014.54,0006.64,0005.63
2024-06-01 09:07:00,SystemResetWarning,0829.2,5.01,000.00,030.6,029.8,000.0,039.1,032.3,024.6,0003.3,0016.42,0006.73,0005.67
2024-06-01 09:08:00,SystemResetWarning,0829.2,5.00,000.00,030.6,029.8,000.0,039.1,032.3,024.6,0002.8,0015.65,0006.74,0005.71
2024-06-01 09:09:00,SystemResetWarning,0829.2,4.99,000.00,030.6,029.8,000.0,039.0,032.3,024.7,0002.6,0015.56,0006.75,0005.76
2024-06-01 09:10:00,SystemResetWarning,0829.2,5.00,000.00,030.6,029.8,000.0,039.0,032.3,024.7,0002.1,0015.45,0006.76,0005.79
2024-06-01 09:11:00,SystemResetWarning,0829.2,5.00,000.00,030.6,029.8,000.0,039.0,032.3,024.7,0002.0,0015.43,0006.78,0005.83
2024-06-01 09:12:00,SystemResetWarning,0829.2,5.00,000.00,030.6,029.8,000.0,039.0,032.3,024.7,0001.6,0015.62,0006.82,0005.86
2024-06-01 09:13:00,SystemResetWarning,0829.2,5.01,000.00,030.6,029.8,000.0,039.0,032.3,024.6,0001.4,0015.96,0006.81,0005.87
2024-06-01 09:14:00,SystemResetWarning,0829.1,5.00,000.00,030.6,029.8,000.0,039.0,032.3,024.5,0001.3,0015.78,0006.80,0005.84
2024-06-01 09:15:00,SystemResetWarning,0829.1,4.99,000.00,030.6,029.8,000.0,039.0,032.2,024.3,0001.4,0015.60,0006.76,0005.79
2024-06-01 09:16:00,SystemResetWarning,0829.1,5.00,000.00,030.6,029.8,000.0,039.0,032.3,024.3,0001.5,0015.72,0006.73,0005.74
2024-06-01 09:17:00,SystemResetWarning,0829.1,5.00,000.00,030.6,029.8,000.0,039.0,032.3,024.3,0001.2,0015.63,0006.64,0005.68
2024-06-01 09:18:00,SystemResetWarning,0829.1,4.99,000.00,030.6,029.8,000.0,039.0,032.3,024.3,0001.6,0014.28,0006.57,0005.63
2024-06-01 09:19:00,SystemResetWarning,0829.1,5.00,000.00,030.6,029.7,000.0,039.0,032.3,024.1,0001.6,0015.22,0006.53,0005.56
2024-06-01 09:20:00,SystemResetWarning,0829.1,5.01,000.00,030.5,029.7,000.0,039.0,032.2,024.0,0002.1,0015.65,0006.45,0005.48
2024-06-01 09:21:00,SystemResetWarning,0829.1,5.00,000.00,030.5,029.7,000.0,039.0,032.2,023.9,0001.9,0015.16,0006.37,0005.41
2024-06-01 09:22:00,SystemResetWarning,0829.1,5.00,000.00,030.5,029.7,000.0,039.0,032.2,024.3,0002.0,0014.92,0006.28,0005.33
2024-06-01 09:23:00,SystemResetWarning,0829.1,4.99,000.00,030.5,029.7,000.0,039.0,032.2,024.5,0001.8,0014.61,0006.23,0005.28
2024-06-01 09:24:00,SystemResetWarning,0829.1,5.00,000.00,030.5,029.7,000.0,039.0,032.2,024.5,0002.0,0014.51,0006.19,0005.24
2024-06-01 09:25:00,SystemResetWarning,0829.1,5.00,000.00,030.5,029.7,000.0,039.0,032.2,024.2,0001.9,0015.67,0006.13,0005.21
2024-06-01 09:26:00,SystemResetWarning,0829.1,5.00,000.00,030.5,029.7,000.0,039.0,032.2,023.0,0000.0,0016.02,0006.11,0005.18
2024-06-01 09:27:00,SystemResetWarning,0829.1,5.01,000.00,030.5,029.7,000.0,039.0,032.2,021.0,0001.0,0015.93,0006.03,0005.08
2024-06-01 09:28:00,SystemResetWarning,0829.0,5.00,000.00,030.5,029.7,000.0,039.0,032.2,020.6,0001.3,0015.58,0005.82,0004.92
2024-06-01 09:29:00,SystemResetWarning,0829.0,5.01,000.00,030.5,029.7,000.0,039.0,032.2,020.1,0001.3,0014.70,0005.60,0004.75
2024-06-01 09:30:00,SystemResetWarning,0829.0,5.00,000.00,030.5,029.6,000.0,039.0,032.2,019.9,0000.5,0013.55,0005.40,0004.59
2024-06-01 09:31:00,SystemResetWarning,0829.0,5.00,000.00,030.5,029.6,000.0,039.0,032.2,019.4,0000.0,0012.29,0005.27,0004.46
2024-06-01 09:32:00,SystemResetWarning,0829.0,4.99,000.00,030.5,029.6,000.0,039.0,032.1,017.9,0000.0,0012.79,0005.12,0004.30
2024-06-01 09:33:00,SystemResetWarning,0829.0,5.01,000.00,030.5,029.6,000.0,039.0,032.1,018.5,0000.0,0012.93,0004.92,0004.13
2024-06-01 09:34:00,SystemResetWarning,0829.0,5.01,000.00,030.4,029.6,000.0,039.0,032.1,017.1,0000.0,0012.69,0004.72,0003.94
2024-06-01 09:35:00,SystemResetWarning,0829.0,5.00,000.00,030.4,029.6,000.0,038.9,032.1,017.1,0000.0,0012.31,0004.47,0003.73
2024-06-01 09:36:00,SystemResetWarning,0829.0,5.00,000.00,030.4,029.6,000.0,038.9,032.1,016.7,0000.0,0010.63,0004.28,0003.53
2024-06-01 09:37:00,SystemResetWarning,0829.0,4.99,000.00,030.4,029.6,000.0,038.9,032.2,016.4,0000.0,0009.84,0004.07,0003.34
2024-06-01 09:38:00,SystemResetWarning,0829.0,4.99,000.00,030.4,029.6,000.0,038.9,032.1,016.0,0000.0,0009.29,0003.89,0003.22
2024-06-01 09:39:00,SystemResetWarning,0829.0,5.01,000.00,030.4,029.6,000.0,038.9,032.1,016.4,0000.0,0008.98,0003.81,0003.16
2024-06-01 09:40:00,SystemResetWarning,0829.0,5.01,000.00,030.4,029.6,000.0,038.9,032.1,016.4,0000.0,0008.93,0003.75,0003.10
2024-06-01 09:41:00,SystemResetWarning,0829.1,4.99,000.00,030.4,029.6,000.0,038.9,032.1,016.0,0000.0,0008.89,0003.69,0003.02
2024-06-01 09:42:00,SystemResetWarning,0829.0,5.00,000.00,030.4,029.6,000.0,038.9,032.1,016.0,0000.0,0008.81,0003.59,0002.89
2024-06-01 09:43:00,SystemResetWarning,0829.0,5.00,000.00,030.4,029.6,000.0,038.9,032.1,015.8,0000.0,0007.98,0003.54,0002.81
2024-06-01 09:44:00,SystemResetWarning,0829.0,4.99,000.00,030.4,029.6,000.0,038.9,032.1,016.4,0000.0,0007.39,0003.52,0002.77
2024-06-01 09:45:00,SystemResetWarning,0829.0,4.99,000.00,030.4,029.6,000.0,038.9,032.1,016.8,0000.0,0007.43,0003.49,0002.72
2024-06-01 09:46:00,SystemResetWarning,0829.0,5.01,000.00,030.4,029.5,000.0,038.9,032.1,016.8,0000.0,0007.67,0003.45,0002.69
2024-06-01 09:47:00,SystemResetWarning,0829.0,5.00,000.00,030.4,029.5,000.0,038.9,032.1,018.3,0000.0,0007.58,0003.46,0002.71
2024-06-01 09:48:00,SystemResetWarning,0829.0,5.00,000.00,030.4,029.5,000.0,038.9,032.1,019.6,0000.0,0007.52,0003.46,0002.76
2024-06-01 09:49:00,SystemResetWarning,0829.0,5.01,000.00,030.4,029.5,000.0,038.9,032.1,018.4,0000.0,0007.58,0003.55,0002.85
2024-06-01 09:50:00,SystemResetWarning,0829.0,5.00,000.00,030.4,029.5,000.0,038.9,032.1,018.2,0000.0,0008.00,0003.60,0002.92
2024-06-01 09:51:00,SystemResetWarning,0829.0,5.00,000.00,030.4,029.5,000.0,038.8,032.0,018.9,0000.0,0008.16,0003.63,0002.96
2024-06-01 09:52:00,SystemResetWarning,0829.0,5.00,000.00,030.4,029.5,000.0,038.8,032.1,018.6,0000.0,0008.31,0003.66,0003.04
2024-06-01 09:53:00,SystemResetWarning,0828.9,5.00,000.00,030.4,029.5,000.0,038.8,032.1,018.4,0000.0,0008.36,0003.71,0003.10
2024-06-01 09:54:00,SystemResetWarning,0828.9,4.99,000.00,030.4,029.5,000.0,038.8,032.1,018.9,0000.0,0008.27,0003.71,0003.12
2024-06-01 09:55:00,SystemResetWarning,0829.0,5.00,000.00,030.4,029.5,000.0,038.8,032.0,019.5,0000.0,0008.71,0003.77,0003.17
2024-06-01 09:56:00,SystemResetWarning,0829.0,5.00,000.00,030.4,029.5,000.0,038.8,032.0,020.2,0000.0,0008.76,0003.83,0003.22
2024-06-01 09:57:00,SystemResetWarning,0828.9,4.99,000.00,030.4,029.5,000.0,038.8,032.0,020.6,0000.0,0008.40,0003.86,0003.26
2024-06-01 09:58:00,SystemResetWarning,0828.9,5.00,000.00,030.3,029.5,000.0,038.8,032.0,020.8,0000.0,0008.35,0003.89,0003.32
2024-06-01 09:59:00,SystemResetWarning,0828.9,4.99,000.00,030.3,029.5,000.0,038.8,032.0,019.5,0000.0,0008.73,0003.93,0003.36
